Theta_e
337 339 341 341 342 345 348 350 350 353 347 342 339 338 335 338 339 340 345 345 346 347 349 348 349 352 350 351 352 353 349 346 342 337 336 338 343 343 344 344 342 343 343
338 339 341 341 342 343 346 349 351 354 352 347 347 343 340 339 340 341 345 346 346 346 347 349 349 353 347 352 353 353 347 344 342 335 332 328 331 338 342 343 343 344 344
336 340 341 343 344 344 346 347 352 357 357 356 349 347 345 343 341 342 342 345 347 346 347 350 350 356 354 346 356 354 348 343 338 334 331 326 322 327 338 338 340 344 343
336 337 337 341 344 345 347 349 354 358 355 355 351 353 344 340 342 343 344 345 348 348 347 349 349 355 349 349 354 351 347 348 335 334 334 334 332 323 322 333 337 339 341
335 337 339 342 343 344 343 346 351 352 353 351 350 347 347 343 343 343 351 351 351 350 349 349 350 353 350 349 347 346 344 346 340 331 331 331 330 328 324 320 328 333 337
338 340 343 345 346 347 347 344 342 347 349 348 348 348 346 345 342 344 343 343 344 345 350 350 351 352 353 352 351 344 340 339 334 334 333 331 327 328 325 323 325 325 327
336 337 338 341 344 345 346 348 348 341 343 345 345 345 346 346 346 345 343 345 342 344 350 351 350 350 350 349 346 341 340 338 336 334 334 335 333 331 329 327 325 323 321
334 335 337 340 340 339 343 346 346 345 344 343 343 346 344 344 344 346 345 345 344 342 346 347 347 348 347 347 342 338 336 337 338 327 324 321 321 320 318 317 318 313 314
334 332 334 336 336 336 338 342 346 347 348 348 348 347 347 346 346 347 345 343 345 341 343 345 344 345 344 340 337 338 332 327 325 321 320 320 321 321 321 318 315 313 307
334 335 334 335 338 337 337 337 338 338 340 342 343 343 343 344 343 343 344 342 344 343 341 340 337 333 330 331 330 327 325 323 323 324 322 322 322 320 321 319 318 319 317
329 333 335 337 338 338 337 338 336 335 336 338 340 341 341 343 341 338 340 337 334 332 332 331 329 328 328 327 321 320 321 319 318 320 318 317 320 317 318 319 319 318 318
332 333 335 336 335 336 337 335 335 335 338 340 340 337 337 337 335 333 332 332 334 335 332 328 326 325 322 322 320 318 319 318 318 319 320 317 316 317 319 319 319 319 321
331 333 335 335 334 335 336 334 334 334 335 335 336 337 334 331 330 328 327 327 327 327 327 327 325 323 323 325 325 324 324 324 324 324 324 323 324 323 323 322 321 320 321
329 331 333 333 333 334 334 335 333 335 335 335 335 330 329 330 330 328 323 322 322 321 321 321 321 322 322 323 322 323 324 322 322 322 322 321 320 320 321 320 320 319 318
326 327 330 331 332 333 333 334 332 335 333 332 331 330 331 330 327 326 325 325 325 325 324 322 319 317 314 316 321 320 320 320 319 319 316 315 311 309 310 312 313 314 311
322 324 327 329 330 328 330 329 330 332 333 329 329 330 328 326 325 325 324 324 323 322 320 317 315 312 309 306 308 314 315 315 315 314 315 315 314 310 309 309 306 309 310
322 324 327 328 329 328 330 328 329 330 328 328 327 327 326 324 322 321 318 317 318 320 318 316 314 311 311 304 305 309 313 313 313 314 314 312 311 312 313 310 308 308 308
324 326 326 328 327 326 326 325 325 324 322 323 321 321 318 317 318 317 318 320 319 318 316 314 313 311 308 302 302 306 313 312 312 312 312 312 310 308 310 311 310 311 311
327 328 328 328 326 321 321 328 322 322 320 320 320 320 322 321 323 322 320 319 318 316 314 314 313 312 310 300 301 306 312 311 311 310 309 310 309 300 301 310 309 309 309
327 325 325 320 320 322 323 321 323 321 321 318 318 320 322 324 323 322 319 317 316 314 312 312 312 308 311 298 299 303 310 310 309 311 311 301 304 298 299 309 308 305 306
324 325 321 322 321 322 323 319 316 314 316 318 320 322 324 324 324 322 319 316 315 313 312 311 312 313 310 307 298 298 311 309 308 308 308 307 298 298 298 298 306 303 303
320 321 321 322 324 323 321 316 315 317 319 318 319 320 322 320 321 320 317 316 315 312 311 311 310 311 314 298 298 297 298 301 311 309 309 307 297 297 298 301 297 297 300
320 323 321 316 316 319 319 313 315 318 318 316 317 319 319 320 320 318 316 313 315 311 310 309 309 310 311 313 302 299 298 299 306 309 301 298 299 298 302 300 299 299 307
321 323 322 321 320 319 319 319 320 319 321 320 319 318 318 318 319 317 316 315 316 314 311 311 311 310 313 310 311 310 307 301 303 305 306 305 301 301 303 306 306 307 309
323 322 321 321 320 322 322 324 324 323 321 317 317 316 316 319 317 317 314 315 316 308 311 311 311 308 308 304 299 300 307 307 302 303 310 306 307 307 306 307 307 306 308
322 321 321 321 321 321 320 321 322 322 321 320 319 310 313 313 313 313 313 294 295 296 295 295 300 308 298 295 294 294 294 294 295 306 306 304 305 305 304 305 305 304 307
Wind_Speed
9 11 13 14 14 14 14 14 13 13 11 11 11 11 13 11 12 13 16 15 14 15 14 12 12 11 12 11 10 8 10 5 3 1 6 9 12 12 11 10 10 12 12
10 10 13 15 16 16 16 16 17 16 15 13 11 11 11 11 11 12 13 16 16 16 14 14 13 12 11 12 12 11 8 6 6 3 2 4 6 11 11 11 11 10 9
7 10 13 13 14 16 18 18 18 18 17 17 11 10 10 9 10 13 12 14 16 16 16 15 13 12 10 11 9 9 12 7 5 5 4 3 5 2 2 4 6 8 8
5 8 8 10 12 13 14 16 16 16 15 16 13 15 13 14 13 11 10 9 13 15 16 16 15 12 8 6 4 9 11 11 7 3 7 7 4 5 4 3 4 4 8
9 9 8 8 7 7 9 10 11 13 14 14 16 12 15 12 10 9 9 9 9 10 13 14 13 10 6 5 6 6 8 8 6 5 3 8 9 10 7 6 3 2 4
13 12 11 9 8 8 7 5 5 9 10 12 13 14 14 11 10 7 7 8 7 7 9 10 8 7 8 9 9 8 9 9 9 7 8 8 4 6 8 9 7 8 2
14 13 14 14 13 15 12 8 6 1 3 6 8 8 10 9 9 8 7 6 6 5 5 4 5 4 5 6 5 6 9 10 9 13 7 7 8 5 7 9 7 3 2
12 14 15 15 14 15 14 14 13 11 8 6 4 0 2 3 4 2 5 4 6 5 6 5 6 7 3 2 3 4 5 6 3 7 6 7 6 7 7 4 2 3 6
12 15 14 14 14 14 15 16 16 15 14 11 8 7 5 5 8 7 4 4 5 5 5 5 5 6 5 4 3 6 9 9 7 9 8 7 4 5 3 6 6 4 3
11 13 11 11 12 12 13 14 14 14 13 12 10 9 9 9 7 5 6 6 6 8 11 11 12 12 11 11 10 9 11 9 8 6 9 6 5 5 4 4 3 3 2
10 9 10 10 13 12 12 11 11 11 10 9 8 8 8 8 7 6 7 11 12 11 11 11 11 11 13 12 12 11 9 10 9 7 8 7 6 4 4 3 3 3 2
8 8 9 10 11 12 11 11 10 10 9 8 9 9 9 9 10 11 10 9 13 13 13 13 11 13 12 9 9 10 8 7 8 6 6 5 2 2 3 2 1 1 2
7 8 8 8 9 10 9 9 9 8 9 9 10 11 12 12 11 12 12 11 12 13 13 14 13 11 9 12 10 11 9 11 11 9 8 8 7 6 6 6 6 5 4
8 8 8 7 7 8 8 8 8 7 8 9 11 11 11 11 13 12 12 10 11 12 13 11 12 12 10 10 9 10 10 10 10 10 11 12 12 11 9 7 7 6 6
7 6 7 4 6 7 7 8 7 8 9 10 11 10 12 12 12 11 12 11 12 13 12 12 12 13 13 10 10 10 10 10 10 9 11 12 13 16 16 9 9 9 8
5 5 4 3 6 6 7 5 6 7 8 9 9 10 10 11 11 12 12 11 12 12 12 14 14 14 11 12 14 11 10 11 10 9 8 9 9 11 11 9 11 10 9
3 4 4 4 5 5 5 6 6 7 7 10 9 10 10 11 11 12 10 8 9 12 13 13 13 13 12 9 10 9 11 11 10 10 9 9 10 11 9 6 10 9 8
4 6 4 3 6 8 7 6 7 5 10 11 9 7 6 8 10 8 7 10 10 11 10 11 12 12 9 10 8 6 12 11 12 12 11 11 12 13 13 9 9 9 9
3 5 5 7 8 6 4 7 8 8 8 8 7 3 4 6 8 10 10 9 9 10 10 10 11 10 10 11 14 9 8 10 10 11 12 12 11 11 15 9 10 11 11
6 7 6 7 4 4 7 7 8 8 8 7 6 4 3 8 9 9 9 9 8 8 8 10 9 8 8 10 11 14 6 7 5 7 11 11 10 6 9 11 11 12 13
9 9 6 6 6 5 9 10 8 7 5 4 6 7 8 9 8 8 7 7 7 7 7 7 6 6 5 7 9 12 7 7 6 6 6 8 8 7 7 8 11 11 12
9 7 7 7 7 7 10 10 9 4 5 7 6 9 8 6 6 7 7 6 6 6 5 4 4 5 3 3 7 6 5 8 7 6 7 6 4 7 7 9 8 12 14
9 9 11 9 6 8 9 10 7 6 5 5 3 4 6 6 5 6 5 5 4 3 2 1 2 3 3 1 7 5 3 2 6 8 5 3 8 13 6 3 9 13 8
10 8 10 10 10 7 7 7 6 5 6 5 6 4 4 4 3 3 3 2 2 1 2 0 2 3 2 6 8 5 3 7 7 6 5 3 8 9 8 7 4 6 8
10 9 8 7 8 8 7 6 8 7 6 6 4 5 2 1 4 3 5 3 6 8 7 5 4 4 5 6 6 6 8 8 6 8 5 5 7 8 8 7 7 7 7
10 8 8 7 7 4 5 5 5 5 5 6 6 4 2 3 4 5 5 10 9 9 8 8 7 5 9 7 7 6 6 5 5 6 5 5 7 8 8 8 8 7 8
Wind_Direction
188 199 209 214 211 207 211 216 216 214 211 208 215 217 224 224 229 229 230 231 228 230 228 242 240 237 245 242 237 236 228 228 193 321 289 291 279 243 255 244 245 233 226
185 197 205 213 216 219 219 218 218 212 208 211 217 228 227 233 234 234 233 229 235 234 233 235 246 244 249 235 246 232 222 220 192 138 77 280 278 270 262 248 248 245 267
275 221 212 215 219 222 222 221 222 217 214 220 215 217 240 234 237 235 236 229 234 239 236 243 242 253 240 254 220 235 231 223 181 175 164 247 246 359 284 286 304 279 237
332 229 235 229 223 231 231 234 234 229 225 219 228 220 226 232 235 244 251 244 234 238 240 239 242 247 260 237 221 216 228 254 207 179 210 229 218 225 251 230 230 286 258
40 39 25 14 1 324 298 267 233 240 235 229 230 229 233 253 249 253 261 275 280 259 254 247 246 246 235 247 232 214 219 237 241 213 177 219 223 222 233 244 222 240 274
47 44 47 44 29 14 356 344 266 239 237 233 229 238 255 254 274 261 272 258 265 269 244 265 258 255 247 246 246 218 207 210 217 219 219 223 211 221 225 233 219 208 154
44 42 37 42 36 25 14 12 39 25 225 232 235 235 243 256 262 257 259 302 283 284 6 292 265 279 264 274 252 232 230 211 227 232 227 233 255 271 230 229 210 174 136
45 44 43 38 33 31 23 37 49 50 49 54 48 327 215 227 237 203 318 344 27 41 356 343 331 304 259 301 287 277 273 246 309 40 93 76 60 64 49 4 28 73 50
52 47 32 40 36 34 33 33 40 48 46 51 59 62 68 55 55 61 60 62 30 25 21 13 20 33 59 61 303 21 35 55 69 70 74 76 67 72 59 81 77 64 72
46 52 46 50 56 48 46 43 45 46 51 46 39 55 67 72 73 53 56 44 41 35 50 50 53 57 64 69 66 64 59 61 56 56 73 60 64 76 69 81 75 93 129
61 51 47 53 62 64 57 53 51 49 48 52 48 55 48 56 62 62 57 66 73 73 78 75 72 71 73 75 71 63 63 63 57 47 59 50 36 49 52 55 54 46 41
72 71 57 60 58 58 43 51 51 48 45 53 59 61 60 63 68 72 70 92 89 81 79 81 80 80 71 62 73 78 79 86 91 85 75 81 100 93 98 117 77 50 272
78 62 62 55 49 43 55 49 52 60 65 64 71 76 74 68 69 74 70 77 81 79 74 76 73 80 65 77 63 73 68 65 53 46 39 36 24 18 11 1 342 1 355
51 59 51 38 40 46 36 37 62 58 72 73 71 70 79 90 87 84 79 76 81 80 77 77 77 78 79 75 70 64 59 57 57 54 38 40 32 26 9 37 24 4 336
43 38 60 355 8 52 49 46 40 41 50 78 91 91 88 88 83 79 78 81 83 86 88 83 74 66 53 37 57 62 56 55 63 62 73 62 63 54 39 26 23 360 356
43 13 63 25 35 31 55 58 55 64 86 86 83 93 93 91 95 95 91 84 75 76 77 71 66 62 61 21 29 52 61 56 49 44 49 88 43 96 90 84 69 46 14
-0 80 63 32 49 58 73 64 67 80 80 86 74 69 74 79 78 84 82 79 79 77 72 70 71 72 73 29 36 41 59 55 52 48 38 39 47 10 19 151 156 138 129
62 77 79 93 63 43 67 80 76 69 77 85 71 61 99 115 108 94 84 82 80 76 74 75 79 84 70 12 358 60 60 62 57 47 51 50 45 27 1 21 15 8 7
23 115 67 107 100 85 90 102 92 79 62 78 85 102 90 107 100 88 86 84 80 75 72 77 78 77 65 11 359 0 62 72 61 71 43 34 45 12 355 6 5 1 6
74 108 88 78 105 109 93 87 96 91 81 85 79 78 102 83 87 88 87 87 85 79 84 81 78 72 76 29 359 359 68 49 72 78 104 69 31 1 0 354 8 355 355
102 118 110 91 90 97 103 91 85 77 85 88 75 90 81 74 80 94 97 95 82 93 94 91 87 76 37 70 33 12 354 11 27 39 39 57 21 351 340 329 10 343 314
98 113 112 85 83 103 105 102 100 92 77 69 54 55 56 55 87 100 107 106 114 113 109 111 149 115 75 41 68 21 5 343 330 14 39 65 357 300 310 342 327 301 299
119 127 104 98 84 106 117 123 145 151 94 58 87 87 82 82 96 112 124 132 144 126 138 135 94 76 42 41 170 188 194 242 299 14 17 320 280 278 252 259 283 288 5
119 109 122 124 113 114 119 131 142 130 153 128 98 107 105 98 92 123 153 138 109 125 187 312 11 11 348 23 11 7 203 187 226 214 189 336 296 284 290 312 347 358 13
111 123 133 126 116 137 142 166 170 181 155 144 157 114 144 99 125 58 30 16 51 18 352 0 331 336 41 39 26 348 347 351 18 309 327 344 340 357 358 359 359 352 5
140 136 116 110 97 94 144 170 183 199 198 190 158 128 135 205 130 144 135 55 47 54 58 50 20 26 63 6 353 360 323 294 306 290 350 3 345 359 354 352 0 349 5